Location: Newark
(44.4156°N, 12.1972°E)
Time: 08:01:08
(UTC+00:00)

STARLINK-1110 - Pass Details

Date: 31 January 2020
Orbit: 348 x 351 km, 53.0° (Epoch: 23 February)

Event Time Altitude Azimuth Distance (km) Brightness Sun altitude
Rises 18:40:15 0° 292° (WNW) 2,165 7.8 -25.5°
Reaches altitude 10° 18:42:38 10° 273° (W) 1,318 6.6 -25.9°
Enters shadow 18:43:57 17° 249° (WSW) 1,004 5.7 -26.1°
